Location: Lafig�re
(44.4503°N, 4.0357°E)
Time: 02:07:43
(UTC+00:00)

Transit 4A - Pass Details

Date: 25 January 2021
Orbit: 866 x 979 km, 66.8° (Epoch: 24 February)

Event Time Altitude Azimuth Distance (km) Brightness Sun altitude
Rises 04:25:57 0° 320° (NW) 3,615 - -29.1°
Reaches altitude 10° 04:28:46 10° 312° (NW) 2,648 - -28.6°
Maximum altitude 04:34:07 32° 251° (WSW) 1,506 - -27.6°
Exits shadow 04:38:52 12° 192° (SSW) 2,415 9.9 -26.8°
Drops below altitude 10° 04:39:20 10° 189° (S) 2,564 10.1 -26.7°
Sets 04:42:01 0° 180° (S) 3,483 10.9 -26.2°
